Volver al catálogo

STARLINK-1392

ActivoComunicacionesVLEO
NORAD 45677·PAYLOAD·🇺🇸 United States

Lanzado Jun 4, 2020 desde Cape Canaveral Space Force Station

Loading…

Próximos Pases (próximas 24 horas)

TLE

ActualizadoSource: CelesTrak SupGP

Época: Sep 14, 2026, 20:34 UTC

1 45677C 20035W   26257.85743056  .00077456  00000+0  14970-2 0  2577
2 45677  53.1473 254.7736 0001340  47.6241 129.2805 15.47143527    17

Sigue STARLINK-1392 en tiempo real con AllMySat

Download on the App Store